Location: Newark
(21.1200°N, 73.4000°E)
Time: 06:17:59
(UTC+00:00)

Courier 1B Rocket - Pass Details

Date: 25 January 2020
Orbit: 920 x 1202 km, 28.2° (Epoch: 17 February)

Event Time Altitude Azimuth Distance (km) Brightness Sun altitude
Rises 07:17:51 0° 269° (W) 3,948 8.2 49.8°
Reaches altitude 10° 07:20:48 10° 274° (W) 2,948 7.6 49.8°
Maximum altitude 07:27:49 53° 350° (N) 1,255 5.9 49.7°
Drops below altitude 10° 07:34:20 10° 66° (ENE) 2,744 7.3 49.6°
Sets 07:37:00 0° 71° (ENE) 3,656 7.8 49.6°
